SCP
1 1 1 0 0 0 0 0 0 0 0 0 0 0 0 0 0 0 0 0 0 0 0 0 0 0 0 0 0 0 0 0 0 0 0 0 0 0 0 0 0 0 0
1 1 1 0 0 0 0 0 0 0 0 0 0 0 0 0 0 0 0 0 0 0 0 0 0 0 0 0 0 0 0 0 0 0 0 0 0 0 0 0 0 0 0
0 0 0 0 0 0 0 0 0 0 0 0 0 0 0 0 0 0 0 0 0 0 0 0 0 0 0 0 0 0 0 0 0 0 0 0 0 0 0 0 0 0 0
0 0 0 0 0 0 0 0 0 0 0 0 0 0 0 0 0 0 0 0 0 0 0 0 0 0 0 0 0 0 0 0 0 0 0 0 0 0 0 0 0 0 0
0 0 0 0 0 0 0 0 0 0 0 0 0 0 0 0 0 0 0 0 0 0 0 0 0 0 0 0 0 0 0 0 0 0 0 0 0 0 0 0 0 0 0
0 0 0 0 0 0 0 0 0 0 0 0 0 0 0 0 0 0 0 0 0 0 0 0 0 0 0 0 0 0 0 0 0 0 0 0 0 0 0 0 0 0 0
0 0 0 0 0 0 0 0 0 0 0 0 0 0 0 0 0 0 0 0 0 0 0 0 0 0 0 0 0 0 0 0 0 0 0 0 0 0 0 0 0 0 0
0 0 0 0 0 0 0 0 0 0 0 0 0 0 0 0 0 0 0 0 0 0 0 0 0 0 0 0 0 0 0 0 0 0 0 0 0 0 0 0 0 0 0
1 1 0 0 0 0 0 1 1 0 0 0 0 0 0 0 0 0 0 0 0 0 0 0 0 0 0 0 0 0 0 0 0 0 0 0 0 0 0 0 0 0 0
1 1 1 1 1 1 1 1 1 1 0 0 0 0 0 0 0 0 0 0 0 0 0 0 0 0 0 0 0 0 0 0 0 0 0 0 0 0 0 0 0 0 0
1 1 1 1 1 1 1 1 1 1 1 1 0 0 0 0 0 0 0 0 0 0 0 0 0 0 0 0 0 0 0 0 0 0 0 0 0 0 0 0 0 0 0
1 1 1 1 1 1 1 1 1 1 1 1 1 0 0 0 0 0 0 0 0 0 0 0 0 0 0 0 0 0 0 0 0 0 0 0 0 0 0 0 0 0 0
1 1 1 1 1 1 1 1 1 1 1 1 1 0 0 0 0 0 0 0 0 0 0 0 0 0 0 0 0 0 0 0 0 0 0 0 0 0 0 0 0 0 0
1 1 2 1 1 1 1 1 1 1 1 1 1 1 0 0 0 0 0 0 0 0 0 0 0 0 0 0 0 0 0 0 0 0 0 0 0 0 0 0 0 0 0
1 1 1 1 1 1 1 1 1 1 1 1 1 0 0 0 0 0 0 0 0 0 0 0 0 0 0 0 0 0 0 0 0 0 0 0 0 0 0 0 0 0 0
1 1 1 1 1 1 1 1 1 1 0 0 0 0 0 0 0 0 0 0 0 0 0 0 0 0 0 0 0 0 0 0 0 0 0 0 0 0 0 0 0 0 0
1 1 1 1 1 1 1 1 1 0 0 0 0 0 0 0 0 0 0 0 0 0 0 0 0 0 0 0 0 0 0 0 0 0 0 0 0 0 0 0 0 0 0
1 1 1 1 1 1 1 1 1 1 0 0 0 0 0 0 0 0 0 0 0 0 0 0 0 0 0 0 0 0 0 0 0 0 0 0 0 0 0 0 0 0 0
1 1 1 1 1 1 1 1 1 1 1 0 0 0 0 0 0 0 0 0 0 0 0 0 0 0 0 0 0 0 0 0 0 0 0 0 0 0 0 0 0 0 0
1 1 1 1 1 1 1 1 1 1 1 1 0 0 0 0 0 0 0 0 0 0 0 0 0 0 0 0 0 0 0 0 0 0 0 0 0 0 0 0 0 0 0
1 1 1 1 1 1 1 1 1 1 1 1 0 0 0 0 0 0 0 0 0 0 0 0 0 0 0 0 0 0 0 0 0 0 0 0 0 0 0 0 0 0 0
0 1 1 1 1 1 1 1 1 1 1 0 0 0 0 0 0 0 0 0 0 0 0 0 0 0 0 0 0 0 0 0 0 0 0 0 0 0 0 0 0 0 0
0 0 1 1 1 1 1 1 0 0 0 0 0 0 0 0 0 0 0 0 0 0 0 0 0 0 0 0 0 0 0 0 0 0 0 0 0 0 0 0 0 0 0
0 0 0 0 0 0 0 0 0 0 0 0 0 0 0 0 0 0 0 0 0 0 0 0 0 0 0 0 0 0 0 0 0 0 0 0 0 0 0 0 0 0 0
0 0 0 0 0 0 0 0 0 0 0 0 0 0 0 0 0 0 0 0 0 0 0 0 0 0 0 0 0 0 0 0 0 0 0 0 0 0 0 0 0 0 0
0 0 0 0 0 0 0 0 0 0 0 0 0 0 0 0 0 0 0 0 0 0 0 0 0 0 0 0 0 0 0 0 0 0 0 0 0 0 0 0 0 0 0
Wind_Speed
10 9 8 8 7 6 5 5 5 6 7 6 6 6 5 5 4 3 3 4 3 2 1 2 1 2 2 2 1 1 1 1 1 0 1 2 2 1 1 2 3 4 6
9 8 8 8 8 7 6 6 6 6 6 6 6 5 6 5 4 4 4 4 4 3 2 2 2 1 1 1 2 2 1 1 0 0 0 1 2 3 3 3 4 5 3
10 9 9 9 8 7 7 7 6 6 6 6 6 6 5 5 5 4 3 3 3 3 3 3 2 1 1 0 1 1 1 1 0 1 1 1 2 2 2 4 5 3 5
11 10 9 9 8 8 7 7 7 7 6 6 6 5 5 5 5 5 4 3 3 2 2 2 2 2 1 1 1 1 1 1 1 2 2 2 2 2 2 2 3 2 4
11 10 9 9 8 8 8 8 7 7 8 6 6 5 5 5 6 6 4 5 4 3 3 3 2 2 2 1 1 1 2 1 2 2 2 2 0 0 1 1 3 3 3
10 10 10 9 9 9 8 8 7 7 6 7 6 6 6 6 7 8 4 3 3 4 4 3 3 4 5 4 3 2 1 2 2 2 3 2 2 2 1 2 3 3 3
9 9 10 10 9 9 10 9 8 7 6 6 6 6 5 5 7 8 6 2 3 3 4 3 5 5 6 5 6 7 6 7 6 3 4 4 4 3 2 3 3 4 4
10 10 10 10 10 9 8 8 8 7 6 6 6 6 6 7 10 10 8 4 4 4 4 4 4 3 5 3 3 5 6 6 8 7 5 6 5 3 3 4 5 5 6
12 11 11 10 10 9 9 8 8 7 7 6 6 6 6 6 11 11 9 4 5 6 6 6 6 5 5 5 4 4 5 4 7 8 9 8 7 7 4 3 4 5 6
12 11 10 10 10 9 8 8 7 7 7 7 7 7 7 7 11 13 11 5 5 5 5 6 8 7 7 8 5 5 6 5 5 4 5 7 8 9 10 7 6 6 6
11 10 10 10 9 9 8 7 7 7 7 7 6 6 7 7 11 14 14 6 5 5 5 5 5 8 11 11 8 5 5 4 4 4 5 6 6 6 7 8 8 7 6
9 9 9 9 10 10 8 8 8 7 7 7 6 6 6 7 9 12 15 13 8 5 4 3 2 7 8 9 7 7 6 4 4 5 6 5 5 5 5 6 7 8 8
8 8 8 9 8 7 9 9 8 7 7 7 7 7 6 6 8 13 16 16 13 6 4 3 2 4 6 6 10 10 7 5 5 6 6 5 5 4 4 4 5 6 8
7 7 7 8 8 7 7 7 8 8 8 7 6 6 6 5 5 6 8 8 9 8 7 6 7 8 7 7 6 6 6 6 6 6 5 5 4 4 4 4 4 4 5
7 7 8 8 8 7 7 5 7 5 6 6 5 4 4 4 4 6 6 6 6 5 5 5 5 4 5 5 5 6 6 6 7 6 5 5 5 5 5 4 4 4 5
6 6 7 7 7 7 7 5 3 3 6 6 5 4 3 4 6 7 8 7 7 6 5 5 5 5 6 5 5 5 5 5 5 5 5 5 5 5 4 4 4 4 5
5 4 4 5 6 6 6 7 6 3 4 4 5 5 5 5 6 7 7 6 6 6 5 6 5 5 5 4 4 4 4 4 3 3 4 4 4 4 4 4 4 5 5
4 4 3 3 3 4 4 5 5 6 5 3 3 5 6 5 5 5 6 4 3 4 6 6 5 4 3 3 3 3 3 3 2 3 3 3 3 3 4 4 4 5 5
2 2 2 2 2 2 2 3 3 4 4 4 4 3 4 4 4 4 5 4 4 4 4 4 3 3 2 2 2 2 3 3 3 2 3 3 3 4 4 4 5 6 6
2 2 2 1 1 2 2 2 2 2 3 3 3 3 3 3 3 3 4 5 4 3 2 3 3 2 2 2 2 2 2 2 3 3 3 3 3 4 5 6 5 5 5
2 3 2 1 2 2 2 2 2 2 2 2 2 3 4 2 2 2 3 3 3 2 2 2 3 2 2 2 1 2 3 3 2 2 3 3 3 4 4 5 5 6 6
3 3 3 3 4 4 3 3 3 3 2 2 2 3 3 1 1 1 1 1 1 1 2 2 3 2 1 1 2 2 3 3 4 3 4 4 4 5 5 5 5 6 6
5 5 5 5 4 4 3 3 3 3 2 2 2 2 2 0 0 0 0 1 1 1 2 2 2 2 2 2 2 2 2 3 4 4 5 5 5 5 6 6 7 8 7
6 6 6 5 4 4 4 3 3 3 3 2 2 2 2 1 2 2 2 2 2 2 2 2 3 4 4 3 2 2 3 3 4 4 6 6 7 6 6 7 7 8 8
7 6 6 5 5 4 4 4 4 4 4 4 4 3 3 3 3 3 3 3 3 3 3 3 3 4 6 6 4 4 3 3 3 5 5 6 8 8 8 8 7 7 8
7 7 6 5 5 5 5 5 5 5 5 5 4 4 4 5 5 5 4 5 5 4 4 4 6 6 7 6 6 5 3 3 4 5 5 6 8 7 7 7 9 8 9
Wind_Direction
172 176 161 165 165 164 168 164 156 148 149 162 165 165 164 167 173 175 175 166 164 177 156 137 119 22 5 338 351 341 14 33 64 100 97 110 131 127 176 240 233 212 212
169 167 161 162 164 168 170 164 156 155 163 167 168 170 176 170 172 186 200 171 172 175 168 158 187 181 143 337 344 349 16 51 103 239 192 195 198 195 206 233 255 249 227
169 169 164 166 168 171 166 160 162 166 173 171 174 179 181 171 178 187 193 179 178 174 174 184 194 172 197 332 316 326 323 341 66 253 258 230 225 212 201 246 265 270 273
170 171 168 169 168 168 164 163 167 171 173 172 175 180 179 182 184 185 187 188 186 183 189 196 190 186 188 212 258 263 289 308 290 264 252 236 220 208 199 245 272 256 267
169 171 170 168 166 168 169 169 170 175 180 174 174 182 185 191 194 185 185 190 186 196 201 206 189 148 110 78 318 2 346 325 299 286 278 283 252 297 265 279 287 282 265
169 170 167 170 171 174 172 172 172 180 182 176 181 189 196 204 175 167 180 200 184 197 207 206 186 179 176 189 211 231 250 274 299 309 299 305 303 305 329 302 302 308 302
170 170 168 172 174 177 179 175 176 180 184 182 187 195 190 175 164 161 169 204 222 221 217 218 239 215 189 199 210 223 234 237 233 248 274 283 289 299 310 305 299 294 283
174 175 173 177 179 178 181 176 177 180 185 188 193 199 191 185 176 172 174 207 235 237 232 227 238 230 232 221 222 223 224 226 224 225 239 256 265 278 276 273 274 276 267
181 180 178 179 178 180 184 181 180 183 187 192 196 201 201 186 182 181 179 206 226 231 232 231 226 224 219 214 232 250 256 258 247 232 222 235 248 260 262 282 279 278 280
184 181 180 178 179 183 183 181 182 184 190 195 197 198 199 190 186 189 189 212 227 228 226 228 229 227 212 208 222 241 251 258 270 264 246 248 247 249 240 230 244 258 271
183 180 179 179 181 182 179 180 179 187 194 201 198 198 200 199 185 191 195 213 231 233 232 224 212 201 206 209 217 236 249 271 280 272 260 248 241 237 229 221 221 229 247
180 179 179 180 189 189 180 182 187 191 193 199 204 207 205 200 192 196 200 211 229 251 261 266 193 174 192 205 216 234 248 266 267 265 264 260 254 247 237 230 225 225 231
178 179 178 181 191 181 181 185 188 191 203 204 203 210 213 204 194 191 199 211 222 234 265 298 287 206 203 215 229 234 240 242 248 254 259 262 262 264 265 257 244 238 240
182 184 180 183 190 182 182 189 194 196 204 208 205 207 209 204 192 184 190 205 219 230 246 251 239 228 229 242 237 225 223 234 241 252 261 268 274 275 270 264 259 256 259
184 187 189 190 190 186 185 192 199 195 199 203 206 203 205 195 185 171 178 188 199 206 215 228 230 220 221 225 229 227 221 223 231 241 252 262 269 271 271 267 262 264 265
184 187 194 196 188 187 182 182 129 149 152 146 131 132 122 128 139 144 158 165 175 177 199 231 236 239 239 236 234 234 230 231 232 234 240 246 257 263 270 277 278 278 278
185 187 201 204 192 188 186 185 178 153 115 128 147 141 135 135 137 145 153 162 172 171 202 234 241 243 246 248 245 245 247 241 235 242 250 255 262 268 271 275 275 277 278
170 175 196 203 188 187 186 186 184 179 177 172 166 162 156 151 153 159 155 154 190 200 224 234 243 248 248 251 256 260 264 267 259 258 266 270 270 276 281 283 284 288 291
127 152 170 171 164 167 159 158 164 162 165 162 152 147 164 155 148 162 166 208 233 230 228 235 241 246 249 255 260 261 268 276 280 277 275 279 282 284 284 285 287 291 290
74 79 109 127 123 116 118 126 123 130 146 147 152 146 147 166 182 179 198 222 234 239 241 248 252 263 267 265 272 276 282 285 291 292 298 298 299 298 293 289 287 287 283
66 61 68 78 70 77 85 92 104 120 122 118 119 132 148 189 209 205 197 212 232 256 277 283 278 271 271 276 288 301 301 299 303 298 299 301 304 296 287 286 287 288 291
55 54 55 48 50 49 48 57 69 73 79 95 110 123 145 192 227 221 228 266 287 297 300 300 301 299 303 341 347 334 321 318 321 322 320 311 299 291 289 290 294 295 291
46 53 53 52 51 48 44 44 41 41 37 51 66 83 117 131 19 51 34 7 339 337 340 332 323 336 5 12 2 359 342 339 333 327 318 309 304 300 296 293 291 292 290
43 48 47 42 39 38 42 43 38 33 28 31 42 50 63 47 13 25 24 19 9 8 3 354 344 349 1 3 9 21 23 1 339 329 322 307 299 294 293 291 289 288 290
41 44 46 42 38 36 38 36 35 35 35 35 36 30 26 38 31 23 20 13 5 5 1 1 0 13 22 13 8 18 28 14 355 333 315 300 295 293 291 290 288 288 291
43 43 42 39 38 39 38 36 38 36 32 28 30 31 29 25 24 26 21 14 6 8 10 11 13 17 25 24 31 37 30 2 343 325 308 297 294 294 298 295 294 292 291